Location: Akdamlar
(36.8729°N, 30.5187°E)
Time: 14:27:55
(UTC+00:00)

Cosmos 1844 Rocket - Pass Details

Date: 18 September 2020
Orbit: 823 x 846 km, 71.0° (Epoch: 19 October)

Event Time Altitude Azimuth Distance (km) Brightness Sun altitude
Rises 17:53:57 0° 202° (SSW) 3,342 5.8 -23.0°
Reaches altitude 10° 17:56:21 10° 202° (SSW) 2,413 5.1 -23.5°
Maximum altitude 18:01:54 85° 292° (WNW) 832 2.6 -24.5°
Drops below altitude 10° 18:07:29 10° 21° (NNE) 2,435 5.1 -25.5°
Sets 18:09:56 0° 22° (NNE) 3,375 5.9 -26.0°
